Location: Croisilles
(50.1998°N, 2.8793°E)
Time: 21:06:27
(UTC+00:00)

CZ-2C R/B - Pass Details

Date: 21 January 2021
Orbit: 704 x 908 km, 98.1° (Epoch: 02 March)

Event Time Altitude Azimuth Distance (km) Brightness Sun altitude
Rises 17:43:15 0° 156° (SSE) 3,294 6.2 -12.4°
Reaches altitude 10° 17:45:32 10° 154° (SSE) 2,397 5.5 -12.8°
Maximum altitude 17:50:50 70° 72° (ENE) 901 3.1 -13.6°
Drops below altitude 10° 17:56:27 10° 350° (N) 2,540 5.7 -14.5°
Sets 17:58:55 0° 348° (NNW) 3,504 6.4 -14.9°
